Weather History for Martinsburg, WV

Change the Weather History Date:

Tuesday, January 15, 2013

  Actual Average Record
Temperature  
Mean Temperature 38 °F 31 °F  
Max Temperature 41 °F 39 °F 77 °F (1932)
Min Temperature 34 °F 22 °F -2 °F (1957)
Degree Days  
Heating Degree Days 27 34  
Month to date heating degree days 393 510  
Since 1 July heating degree days 2279 2536  
Cooling Degree Days 0 0  
Month to date cooling degree days 0 0  
Year to date cooling degree days 0 0  
Moisture  
Dew Point 32 °F    
Average Humidity 83    
Maximum Humidity 96    
Minimum Humidity 70    
Precipitation  
Precipitation 0.53 in 0.08 in 1.17 in (1995)
Month to date precipitation 0.83 1.13  
Year to date precipitation 0.83 1.13  
Sea Level Pressure  
Sea Level Pressure 30.25 in    
Wind  
Wind Speed 5 mph (NNE)    
Max Wind Speed 12 mph    
Max Gust Speed 45 mph    
Visibility 7 miles    
Events Rain    
T = Trace of Precipitation, MM = Missing Value Source: NWS Daily Summary

Daily Weather History Graph

Daily Weather History Graph

Search for Another Location

Airport:

Trip Planner

Search our weather history database for the weather conditions in past years. The results will help you decide how hot, cold, wet, or windy it might be!

Date:

Astronomy

Jan. 15, 2013 Rise Set
Actual Time 7:30 AM EST 5:13 PM EST
Civil Twilight 7:00 AM EST 5:42 PM EST
Nautical Twilight 6:27 AM EST 6:15 PM EST
Astronomical Twilight 5:55 AM EST 6:47 PM EST
Moon 9:36 AM EST (1/15) 9:58 PM EST (1/15)
Length of Visible Light 10h 41m
Length of Day
9h 42m
Waxing Crescent, 19% of the Moon is Illuminated
Jan 15
Waxing Crescent
Jan 18
First Quarter
Jan 26
Full
Feb 3
Last Quarter
Feb 10
New

Hourly Weather History & Observations

Time (EST) Temp. Windchill Dew Point Humidity Pressure Visibility Wind Dir Wind Speed Gust Speed Precip Events Conditions
12:53 AM 37.9 °F - 35.1 °F 89% 30.26 in 7.0 mi Calm Calm - 0.03 in Rain Light Rain
1:53 AM 37.9 °F 32.7 °F 34.0 °F 86% 30.27 in 10.0 mi NNW 6.9 mph - 0.03 in   Overcast
2:53 AM 37.9 °F 33.5 °F 33.1 °F 83% 30.26 in 10.0 mi South 5.8 mph - N/A   Overcast
3:53 AM 37.9 °F - 34.0 °F 86% 30.28 in 10.0 mi Calm Calm - N/A   Overcast
4:53 AM 37.9 °F - 35.1 °F 89% 30.26 in 9.0 mi Calm Calm - N/A   Overcast
5:53 AM 37.9 °F 35.5 °F 34.0 °F 86% 30.27 in 9.0 mi NNE 3.5 mph - N/A   Overcast
6:53 AM 37.9 °F 33.5 °F 33.1 °F 83% 30.29 in 10.0 mi North 5.8 mph - N/A   Overcast
7:53 AM 37.9 °F 34.4 °F 33.1 °F 83% 30.32 in 10.0 mi North 4.6 mph - N/A   Overcast
8:53 AM 39.0 °F 35.7 °F 32.0 °F 76% 30.34 in 9.0 mi North 4.6 mph - N/A   Overcast
9:53 AM 39.0 °F 34.8 °F 30.9 °F 73% 30.36 in 10.0 mi NNW 5.8 mph 44.9 mph N/A   Overcast
10:17 AM 39.0 °F 34.8 °F 30.9 °F 73% 30.36 in 10.0 mi North 5.8 mph - N/A   Overcast
10:53 AM 39.0 °F 34.8 °F 30.0 °F 70% 30.35 in 10.0 mi NNW 5.8 mph - N/A   Overcast
11:53 AM 39.0 °F 35.7 °F 30.0 °F 70% 30.32 in 10.0 mi North 4.6 mph - N/A   Overcast
12:53 PM 39.9 °F 35.1 °F 30.9 °F 70% 30.29 in 10.0 mi North 6.9 mph - N/A   Overcast
1:53 PM 39.9 °F 37.8 °F 32.0 °F 73% 30.25 in 10.0 mi North 3.5 mph - N/A   Overcast
2:19 PM 39.2 °F 37.0 °F 32.0 °F 75% 30.24 in 9.0 mi NE 3.5 mph - N/A   Overcast
2:41 PM 39.2 °F 34.2 °F 32.0 °F 75% 30.24 in 9.0 mi NE 6.9 mph - N/A   Overcast
2:53 PM 39.9 °F 35.8 °F 30.9 °F 70% 30.26 in 9.0 mi North 5.8 mph - N/A   Overcast
3:34 PM 39.2 °F 35.0 °F 30.2 °F 70% 30.26 in 8.0 mi NNE 5.8 mph - N/A   Overcast
3:53 PM 39.9 °F 35.8 °F 30.9 °F 70% 30.27 in 8.0 mi NE 5.8 mph - N/A   Overcast
4:18 PM 39.2 °F 34.2 °F 30.2 °F 70% 30.24 in 8.0 mi NNE 6.9 mph - N/A   Overcast
4:53 PM 39.0 °F 34.8 °F 30.9 °F 73% 30.25 in 9.0 mi North 5.8 mph - N/A   Overcast
5:11 PM 39.2 °F 35.9 °F 30.2 °F 70% 30.24 in 9.0 mi NNE 4.6 mph - N/A   Overcast
5:53 PM 39.0 °F 35.7 °F 30.9 °F 73% 30.27 in 10.0 mi NNE 4.6 mph - N/A   Overcast
6:53 PM 37.9 °F 31.5 °F 28.9 °F 70% 30.27 in 10.0 mi NNE 9.2 mph - N/A   Overcast
7:53 PM 36.0 °F 33.3 °F 32.0 °F 86% 30.26 in 4.0 mi NNE 3.5 mph - 0.05 in Rain Light Rain
8:53 PM 35.1 °F 30.1 °F 32.0 °F 89% 30.24 in 4.0 mi NNE 5.8 mph - 0.09 in Rain Light Rain
9:41 PM 35.6 °F 30.7 °F 32.0 °F 87% 30.21 in 2.5 mi North 5.8 mph - 0.08 in Rain Rain
9:53 PM 35.1 °F 30.1 °F 32.0 °F 89% 30.22 in 2.5 mi NNE 5.8 mph - 0.10 in Rain Rain
10:15 PM 33.8 °F 27.7 °F 32.0 °F 93% 30.19 in 3.0 mi NNE 6.9 mph - 0.04 in Rain Light Rain
10:48 PM 33.8 °F 30.8 °F 32.0 °F 93% 30.19 in 2.5 mi ENE 3.5 mph - 0.11 in Rain Rain
10:53 PM 34.0 °F - 32.0 °F 92% 30.20 in 2.0 mi Calm Calm - 0.12 in Rain Rain
11:03 PM 33.8 °F 29.6 °F 32.0 °F 93% 30.17 in 2.5 mi NE 4.6 mph - 0.03 in Rain Rain
11:15 PM 33.8 °F 28.6 °F 32.0 °F 93% 30.17 in 2.5 mi NNE 5.8 mph - 0.04 in Rain Light Rain
11:21 PM 33.8 °F 29.6 °F 32.0 °F 93% 30.17 in 3.0 mi North 4.6 mph - 0.05 in Rain Light Rain
11:51 PM 33.8 °F 29.6 °F 32.0 °F 93% 30.16 in 3.0 mi North 4.6 mph - 0.10 in Rain Light Rain
11:53 PM 34.0 °F 31.0 °F 32.0 °F 92% 30.17 in 3.0 mi NNE 3.5 mph - 0.11 in Rain Light Rain